Location: Pinon Hills
(34.4429°N, 117.6403°W)
Time: 18:23:15
(UTC-07:00)

Amateur Radio Satellites - All Passes

Search period start: 01 May 2016 17:53
Search period end: 02 May 2016 17:53
Location: Pinon Hills, 34.4429°N, 117.6403°W

Satellite Date Start Highest point End Downlink Frequencies (MHz)
Time Altitude Azimuth
STARS 01 May 18:05:59 18:08:47 17° 293° (WNW) 18:11:33 437.465
Cubesat XI-IV 01 May 18:06:05 18:11:17 55° 73° (ENE) 18:16:29 437.490
NOAA 15 01 May 18:08:51 18:14:07 88° 255° (WSW) 18:19:26 137.62
HORYU 2 01 May 18:09:10 18:10:46 12° 267° (W) 18:12:22 437.375
M-CUBED/EXP-1 PRIME 01 May 18:31:56 18:36:30 52° 70° (ENE) 18:41:04 437.505
BEESAT 3 01 May 18:40:06 18:44:01 79° 117° (ESE) 18:47:58 437.485
BEESAT 2 01 May 18:45:00 18:48:49 47° 115° (ESE) 18:52:41 435.950
LilacSat-2 01 May 18:46:28 18:50:15 51° 260° (W) 18:54:03 437.200
AUBIESAT-1 01 May 18:51:42 18:56:20 71° 72° (ENE) 19:00:56 437.475
HO-68 01 May 18:55:25 19:00:42 23° 62° (ENE) 19:05:59 435.675
Cosmos 2491 01 May 18:58:23 19:07:04 65° 268° (W) 19:15:40 435.465 / 435.565
CUTE-I 01 May 19:02:18 19:07:17 41° 261° (W) 19:12:19 437.470
NOAA 18 01 May 19:04:38 19:09:23 30° 262° (W) 19:14:10 137.9125
YUBILEINY 01 May 19:05:15 19:13:56 72° 93° (E) 19:22:36 435.215
GOMX 1 01 May 19:06:27 19:11:20 83° 258° (WSW) 19:16:35 467.674
JUGNU 01 May 19:06:30 19:10:19 18° 173° (S) 19:14:09 437.505
DOVE 4 01 May 19:08:58 19:13:48 51° 74° (ENE) 19:18:52 437.250
CUTE 1.7 + AOD 2 01 May 19:19:38 19:22:14 16° 69° (ENE) 19:24:50 437.475
CUBESAT XI-V 01 May 19:19:55 19:23:31 22° 291° (WNW) 19:27:07 437.345
BRITE-PL 01 May 19:27:50 19:31:32 23° 267° (W) 19:35:29 437.365/2234.400
Cosmos 2504 01 May 19:34:43 19:40:09 23° 85° (E) 19:45:28 435.465 / 435.565
SEEDS 01 May 19:48:15 19:51:39 25° 71° (ENE) 19:55:04 437.485
Cubesat XI-IV 01 May 19:48:38 19:51:38 15° 267° (W) 19:54:38 437.490
COMPASS 1 01 May 19:54:17 19:57:21 20° 70° (ENE) 20:00:25 437.405
CINEMA 3 01 May 20:01:28 20:06:20 57° 75° (ENE) 20:11:17 145.822/145.860
SRMSAT 01 May 20:04:37 20:07:25 13° 167° (SSE) 20:10:13 437.500
STRAND 1 01 May 20:06:17 20:11:25 84° 103° (ESE) 20:16:32 437.568
AIST 2 01 May 20:07:09 20:10:27 23° 111° (ESE) 20:13:46 435.215
M-CUBED/EXP-1 PRIME 01 May 20:08:40 20:11:12 14° 263° (W) 20:13:45 437.505
CANX-2 01 May 20:20:26 20:24:40 78° 258° (WSW) 20:28:53 2200.000
BEESAT 2 01 May 20:24:55 20:26:56 13° 311° (NW) 20:28:57 435.950
AAUSAT CUBESAT 2 01 May 20:25:28 20:29:17 38° 74° (ENE) 20:33:06 437.432
Oscar 11 01 May 20:35:36 20:38:46 20° 70° (ENE) 20:41:57 145.826/435.025
HO-68 01 May 20:40:46 20:47:49 61° 257° (WSW) 20:54:55 435.675
FUNcube-1 01 May 20:45:06 20:48:36 22° 70° (ENE) 20:52:04 145.935
DOVE 4 01 May 20:48:49 20:51:46 16° 269° (W) 20:54:49 437.250
UWE-3 01 May 20:52:17 20:56:42 44° 74° (ENE) 21:01:04 435.000/436.395/437.385
CUTE 1.7 + AOD 2 01 May 20:53:56 20:57:46 34° 262° (W) 21:01:38 437.475
JUGNU 01 May 20:54:36 20:58:39 19° 184° (S) 21:02:43 437.505
CUBEBUG 2 01 May 20:56:53 21:01:38 74° 77° (ENE) 21:06:20 437.445
YUBILEINY 01 May 21:05:19 21:11:27 21° 291° (WNW) 21:17:36 435.215
AO-85 01 May 21:14:21 21:17:24 17° 47° (NE) 21:20:18 145.980
PRISM 01 May 21:14:55 21:19:06 82° 283° (WNW) 21:23:16 437.425
RS-15 01 May 21:22:33 21:33:19 57° 110° (ESE) 21:44:39 29.354- 29.394
SEEDS 01 May 21:24:06 21:27:17 21° 265° (W) 21:30:28 437.485
ZACube-1 01 May 21:25:31 21:30:04 71° 76° (ENE) 21:34:33 437.345
Cosmos 2504 01 May 21:25:54 21:33:00 51° 280° (W) 21:39:57 435.465 / 435.565
COMPASS 1 01 May 21:29:19 21:32:45 25° 264° (W) 21:36:11 437.405
CINEMA 3 01 May 21:41:24 21:43:45 13° 269° (W) 21:46:08 145.822/145.860
AIST 2 01 May 21:45:22 21:48:49 25° 306° (NW) 21:52:18 435.215
DELFI C3 01 May 21:48:20 21:52:15 70° 77° (ENE) 21:56:11 145.870
SRMSAT 01 May 21:51:45 21:55:53 19° 177° (S) 22:00:01 437.500
AAUSAT CUBESAT 2 01 May 22:02:58 22:04:54 13° 267° (W) 22:06:50 437.432
ANTELSAT 01 May 22:05:34 22:07:01 11° 92° (E) 22:08:29 437.575/2403.000
Oscar 11 01 May 22:10:59 22:14:42 28° 263° (W) 22:18:25 145.826/435.025
FUNcube-1 01 May 22:20:45 22:24:40 28° 263° (W) 22:28:32 145.935
ESTCUBE 1 01 May 22:28:45 22:31:26 16° 67° (ENE) 22:34:07 437.505/2401.250
UWE-3 01 May 22:30:39 22:33:18 15° 267° (W) 22:35:56 435.000/436.395/437.385
HUMSAT D 01 May 22:38:55 22:43:07 66° 259° (WSW) 22:47:19 437.325/437.525
JUGNU 01 May 22:44:19 22:46:57 13° 193° (SSW) 22:49:35 437.505
AO-85 01 May 22:53:46 22:58:13 48° 246° (WSW) 23:02:16 145.980
CUBEBUG 1 01 May 22:53:59 22:57:13 21° 69° (ENE) 23:00:29 437.445
UNISAT 6 01 May 22:57:28 23:01:42 52° 100° (E) 23:05:50 437.425
GONETS M04 01 May 23:00:22 23:02:47 11° 77° (ENE) 23:05:12
TIGRISAT 01 May 23:15:20 23:19:39 82° 102° (ESE) 23:23:54 435.000
VELOX 1 01 May 23:17:24 23:21:30 40° 73° (ENE) 23:25:40 145.980
DX 1 01 May 23:18:11 23:22:09 36° 72° (ENE) 23:26:10 434.975-435.025
50 SAT 01 May 23:25:33 23:29:07 57° 76° (ENE) 23:32:43 437.505
UKube-1 01 May 23:26:40 23:30:37 36° 72° (ENE) 23:34:36 .
RS-15 01 May 23:35:43 23:46:07 40° 312° (NW) 23:57:08 29.354- 29.394
ANTELSAT 01 May 23:39:50 23:43:59 46° 286° (WNW) 23:48:03 437.575/2403.000
SRMSAT 01 May 23:40:31 23:44:23 18° 187° (S) 23:48:15 437.500
QB50P2 01 May 23:47:48 23:51:44 36° 98° (E) 23:55:37 145.880/145.840
AISAT 01 May 23:48:59 23:53:24 80° 258° (WSW) 23:57:53 437.250
DUCHIFAT 1 01 May 23:49:03 23:52:50 31° 98° (E) 23:56:33 145.980
POLYITAN 1 01 May 23:49:57 23:53:52 36° 98° (E) 23:57:46 437.675
POPSAT HIP 1 01 May 23:52:48 23:56:47 38° 99° (E) 00:00:42 437.405
QB50P1 01 May 23:56:05 00:00:09 43° 99° (E) 00:04:08 145.935-145.965
SPROUT 01 May 23:58:26 00:02:27 40° 74° (ENE) 00:06:31 437.525
ESTCUBE 1 02 May 00:03:41 00:07:53 40° 261° (W) 00:12:06 437.505/2401.250
O/OREOS (USA 219) 02 May 00:20:37 00:23:50 19° 61° (ENE) 00:27:02 437.305
CUBEBUG 1 02 May 00:29:31 00:33:18 29° 263° (W) 00:37:07 437.445
AIST 1 02 May 00:30:31 00:34:43 60° 94° (E) 00:39:00
NANOSAT C BR1 02 May 00:31:23 00:35:36 70° 285° (WNW) 00:39:46 145.865
BUGSAT 1 02 May 00:35:06 00:39:13 53° 100° (E) 00:43:14 437.445
UNISAT 6 02 May 00:36:33 00:37:54 11° 295° (WNW) 00:39:14 437.425
TISAT 1 02 May 00:36:34 00:40:19 31° 72° (ENE) 00:44:06 437.305
GONETS M04 02 May 00:49:13 00:58:02 78° 94° (E) 01:06:53
VELOX 1 02 May 00:55:36 00:58:07 15° 267° (W) 01:00:38 145.980
DX 1 02 May 00:55:46 00:58:26 16° 266° (W) 01:01:07 434.975-435.025
UKube-1 02 May 01:04:12 01:06:46 15° 266° (W) 01:09:20 .
CUSAT 1 02 May 01:20:26 01:26:23 26° 73° (ENE) 01:32:44 437.405
JAS-2 02 May 01:23:20 01:30:54 50° 99° (E) 01:38:20 435.910
QB50P2 02 May 01:24:41 01:27:11 16° 293° (WNW) 01:29:41 145.880/145.840
Oscar 19 02 May 01:25:12 01:29:19 23° 95° (E) 01:33:24 437.125/150
DUCHIFAT 1 02 May 01:25:28 01:28:15 17° 292° (WNW) 01:31:01 145.980
POLYITAN 1 02 May 01:26:53 01:29:20 15° 293° (WNW) 01:31:46 437.675
PCSat 02 May 01:28:52 01:34:19 73° 63° (ENE) 01:39:42 145.827
POPSAT HIP 1 02 May 01:29:52 01:32:11 15° 293° (WNW) 01:34:31 437.405
SRMSAT 02 May 01:32:03 01:32:49 10° 196° (SSW) 01:33:34 437.500
QB50P1 02 May 01:33:30 01:35:30 13° 293° (WNW) 01:37:28 145.935-145.965
Cosmos 2499 02 May 01:34:39 01:41:49 83° 94° (E) 01:48:53 435.465 / 435.565
SPROUT 02 May 01:36:20 01:38:34 14° 267° (W) 01:40:48 437.525
ITUPSAT 1 02 May 01:37:13 01:41:12 27° 70° (ENE) 01:45:11 437.325
SWISSCUBE 02 May 01:46:41 01:51:04 39° 72° (ENE) 01:55:28 437.505
DANDE 02 May 01:54:03 01:59:16 22° 74° (ENE) 02:05:09 436.750
RS-15 02 May 01:57:39 02:03:27 14° 345° (NNW) 02:09:21 29.354- 29.394
O/OREOS (USA 219) 02 May 01:59:14 02:03:18 33° 256° (WSW) 02:07:18 437.305
BUGSAT 1 02 May 02:13:07 02:14:03 11° 295° (WNW) 02:14:59 437.445
TISAT 1 02 May 02:13:09 02:16:00 17° 265° (W) 02:18:52 437.305
BEESAT 02 May 02:19:35 02:24:20 82° 76° (ENE) 02:29:06 436.000
ITAMSAT 1 02 May 02:41:53 02:45:41 20° 95° (E) 02:49:28 435.822/435.867
GONETS M04 02 May 02:49:47 02:55:43 19° 292° (WNW) 03:01:39
Gurwin Techsat 1B 02 May 02:50:36 02:55:54 67° 102° (ESE) 03:01:10 435.225
MOZHAYETS 4 02 May 03:00:45 03:03:22 15° 67° (ENE) 03:05:59
CUSAT 1 02 May 03:01:27 03:08:45 62° 266° (W) 03:16:40 437.405
BEESAT 3 02 May 03:01:50 03:04:17 16° 51° (NE) 03:06:42 437.485
KKS-1 02 May 03:02:52 03:06:36 26° 70° (ENE) 03:10:19 437.445
Oscar 19 02 May 03:03:58 03:08:38 35° 290° (WNW) 03:13:17 437.125/150
BEESAT 2 02 May 03:08:27 03:09:38 11° 48° (NE) 03:10:49 435.950
JAS-2 02 May 03:08:47 03:15:29 33° 294° (WNW) 03:22:10 435.910
AO-7 02 May 03:14:10 03:19:40 19° 94° (E) 03:25:08 29.400- 29.500
ITUPSAT 1 02 May 03:14:59 03:18:55 26° 263° (W) 03:22:53 437.325
PCSat 02 May 03:15:08 03:16:59 12° 258° (WSW) 03:18:50 145.827
STARS 02 May 03:22:18 03:25:41 22° 69° (ENE) 03:29:05 437.465
SWISSCUBE 02 May 03:25:49 03:28:58 18° 266° (W) 03:32:08 437.505
Cosmos 2499 02 May 03:32:41 03:35:44 13° 293° (WNW) 03:38:48 435.465 / 435.565
DANDE 02 May 03:35:29 03:42:13 65° 265° (W) 03:50:18 436.750
RS-15 02 May 04:16:17 04:23:33 17° 23° (NNE) 04:30:51 29.354- 29.394
ITAMSAT 1 02 May 04:20:26 04:25:14 40° 289° (WNW) 04:30:02 435.822/435.867
HORYU 2 02 May 04:26:04 04:28:00 13° 93° (E) 04:29:55 437.375
Gurwin Techsat 1B 02 May 04:32:43 04:35:13 14° 297° (WNW) 04:37:43 435.225
MOZHAYETS 4 02 May 04:35:47 04:40:08 43° 261° (W) 04:44:30
BEESAT 3 02 May 04:38:28 04:42:07 37° 246° (WSW) 04:45:45 437.485
KKS-1 02 May 04:39:30 04:43:04 23° 264° (W) 04:46:40 437.445
CUBESAT XI-V 02 May 04:42:41 04:46:02 20° 69° (ENE) 04:49:23 437.345
BEESAT 2 02 May 04:43:56 04:47:52 61° 244° (WSW) 04:51:46 435.950
STARS 02 May 04:58:03 05:01:52 28° 263° (W) 05:05:41 437.465
AO-7 02 May 05:04:43 05:13:03 77° 289° (WNW) 05:21:22 29.400- 29.500
YUBILEINY 02 May 05:20:37 05:27:57 29° 73° (ENE) 05:35:14 435.215
NOAA 18 02 May 05:50:33 05:53:58 17° 94° (E) 05:57:22 137.9125
BRITE-PL 02 May 05:57:53 06:01:25 17° 91° (E) 06:04:54 437.365/2234.400
Cosmos 2491 02 May 05:59:35 06:06:54 31° 85° (E) 06:14:13 435.465 / 435.565
HORYU 2 02 May 06:00:31 06:04:45 46° 287° (WNW) 06:08:57 437.375
SO-50 02 May 06:04:11 06:07:00 15° 108° (ESE) 06:09:50 436.795
AIST 2 02 May 06:09:08 06:13:16 68° 61° (ENE) 06:17:21 435.215
CUBESAT XI-V 02 May 06:19:04 06:23:09 32° 263° (W) 06:27:18 437.345
LilacSat-2 02 May 06:24:06 06:26:59 20° 95° (E) 06:29:50 437.200
Cubesat XI-IV 02 May 06:27:20 06:31:57 29° 97° (E) 06:36:31 437.490
NOAA 15 02 May 06:27:45 06:32:53 47° 100° (E) 06:37:58 137.62
RS-15 02 May 06:28:09 06:40:02 51° 52° (NE) 06:51:51 29.354- 29.394
ISS 02 May 06:39:48 06:42:43 31° 131° (SE) 06:45:38 145.825
AO-7 02 May 07:00:22 07:04:28 15° 307° (NW) 07:08:35 29.400- 29.500
GOMX 1 02 May 07:12:12 07:17:20 42° 97° (E) 07:22:13 467.674
DOVE 4 02 May 07:12:56 07:16:30 19° 92° (E) 07:19:55 437.250
YUBILEINY 02 May 07:16:40 07:24:59 52° 270° (W) 07:33:19 435.215
STRAND 1 02 May 07:18:30 07:23:36 83° 75° (ENE) 07:28:43 437.568
Cosmos 2504 02 May 07:21:02 07:28:19 45° 79° (ENE) 07:36:03 435.465 / 435.565
CUTE-I 02 May 07:22:34 07:27:52 78° 285° (WNW) 07:33:11 437.470
NOAA 18 02 May 07:29:35 07:34:52 52° 288° (WNW) 07:40:07 137.9125
BRITE-PL 02 May 07:34:35 07:40:11 57° 286° (WNW) 07:45:37 437.365/2234.400
SO-50 02 May 07:42:15 07:47:02 53° 302° (WNW) 07:51:51 436.795
M-CUBED/EXP-1 PRIME 02 May 07:50:09 07:53:59 63° 105° (ESE) 07:57:31 437.505
Cosmos 2491 02 May 07:54:46 08:03:14 50° 282° (WNW) 08:11:47 435.465 / 435.565
LilacSat-2 02 May 07:58:18 08:01:10 21° 289° (WNW) 08:04:00 437.200
PRISM 02 May 08:00:52 08:04:41 41° 73° (ENE) 08:08:32 437.425
CINEMA 3 02 May 08:01:33 08:04:32 17° 93° (E) 08:07:24 145.822/145.860
Cubesat XI-IV 02 May 08:07:22 08:11:54 29° 291° (WNW) 08:16:25 437.490
NOAA 15 02 May 08:08:36 08:12:14 19° 295° (WNW) 08:15:53 137.62
AUBIESAT-1 02 May 08:09:23 08:13:14 87° 287° (WNW) 08:16:46 437.475
CANX-2 02 May 08:09:38 08:12:59 23° 96° (E) 08:16:19 2200.000
HO-68 02 May 08:12:48 08:19:03 32° 97° (E) 08:25:16 435.675
ISS 02 May 08:16:36 08:19:12 21° 326° (NNW) 08:21:48 145.825
PHONESAT 2.4 02 May 08:32:05 08:32:51 11° 141° (SE) 08:33:36 2401.200-2431.200
RS-15 02 May 08:40:59 08:52:22 46° 252° (WSW) 09:03:40 29.354- 29.394
CUTE 1.7 + AOD 2 02 May 08:41:56 08:46:02 49° 99° (E) 08:50:08 437.475
UWE-3 02 May 08:49:05 08:49:20 10° 91° (E) 08:49:37 435.000/436.395/437.385
DOVE 4 02 May 08:49:36 08:54:19 39° 289° (WNW) 08:58:48 437.250
GOMX 1 02 May 08:51:02 08:55:01 21° 293° (WNW) 08:58:53 467.674
CUBEBUG 2 02 May 08:52:47 08:55:46 18° 94° (E) 08:58:43 437.445
SEEDS 02 May 09:10:15 09:14:27 80° 100° (E) 09:18:39 437.485
COMPASS 1 02 May 09:14:47 09:18:55 62° 100° (E) 09:23:02 437.405
Cosmos 2504 02 May 09:14:53 09:21:22 31° 273° (W) 09:28:14 435.465 / 435.565
ZACube-1 02 May 09:18:57 09:21:35 16° 94° (E) 09:24:11 437.345
DELFI C3 02 May 09:31:43 09:33:07 12° 93° (E) 09:34:33 145.870
CINEMA 3 02 May 09:37:35 09:41:47 35° 288° (WNW) 09:45:47 145.822/145.860
PRISM 02 May 09:38:38 09:40:10 12° 267° (W) 09:41:43 437.425
CANX-2 02 May 09:45:21 09:48:44 24° 289° (WNW) 09:52:06 2200.000
AAUSAT CUBESAT 2 02 May 09:46:14 09:50:21 66° 284° (WNW) 09:54:28 437.432
UNISAT 6 02 May 09:52:36 09:56:43 31° 71° (ENE) 10:00:47 437.425
HO-68 02 May 10:00:09 10:06:45 42° 293° (WNW) 10:13:22 435.675
Oscar 11 02 May 10:00:57 10:05:14 66° 101° (E) 10:09:30 145.826/435.025
PHONESAT 2.4 02 May 10:06:10 10:09:18 74° 154° (SSE) 10:12:26 2401.200-2431.200
TIGRISAT 02 May 10:09:56 10:14:23 46° 74° (ENE) 10:18:48 435.000
FUNcube-1 02 May 10:11:50 10:16:01 72° 101° (E) 10:20:07 145.935
CUTE 1.7 + AOD 2 02 May 10:19:57 10:21:25 12° 293° (WNW) 10:22:52 437.475
UWE-3 02 May 10:22:00 10:26:06 50° 285° (WNW) 10:30:07 435.000/436.395/437.385
HUMSAT D 02 May 10:26:31 10:29:49 24° 96° (E) 10:33:06 437.325/437.525
CUBEBUG 2 02 May 10:28:43 10:32:25 29° 289° (WNW) 10:36:01 437.445
ANTELSAT 02 May 10:34:12 10:38:53 87° 259° (WSW) 10:43:31 437.575/2403.000
QB50P2 02 May 10:37:44 10:40:41 18° 69° (ENE) 10:43:38 145.880/145.840
DUCHIFAT 1 02 May 10:38:32 10:41:06 16° 68° (ENE) 10:43:41 145.980
POLYITAN 1 02 May 10:39:50 10:42:49 19° 69° (ENE) 10:45:49 437.675
POPSAT HIP 1 02 May 10:42:29 10:45:33 19° 69° (ENE) 10:48:37 437.405
AIST 1 02 May 10:43:45 10:44:56 11° 72° (ENE) 10:46:06
QB50P1 02 May 10:45:34 10:48:49 21° 70° (ENE) 10:52:04 145.935-145.965
ZACube-1 02 May 10:54:13 10:57:56 31° 288° (WNW) 11:01:35 437.345
DELFI C3 02 May 11:04:25 11:08:09 40° 286° (WNW) 11:11:54 145.870
GONETS M04 02 May 11:04:47 11:12:22 32° 74° (ENE) 11:19:51
NANOSAT C BR1 02 May 11:19:39 11:23:47 52° 75° (ENE) 11:27:57 145.865
BUGSAT 1 02 May 11:21:41 11:25:02 23° 70° (ENE) 11:28:26 437.445
AO-85 02 May 11:25:33 11:28:19 14° 106° (ESE) 11:31:05 145.980
Cosmos 2499 02 May 11:29:32 11:35:33 23° 73° (ENE) 11:41:50 435.465 / 435.565
UNISAT 6 02 May 11:29:53 11:33:24 21° 265° (W) 11:36:53 437.425
JAS-2 02 May 11:35:47 11:38:05 12° 57° (ENE) 11:40:30 435.910
AISAT 02 May 11:43:20 11:47:01 25° 96° (E) 11:50:41 437.250
PHONESAT 2.4 02 May 11:43:30 11:46:21 30° 350° (N) 11:49:12 2401.200-2431.200
TIGRISAT 02 May 11:48:47 11:51:14 14° 267° (W) 11:53:41 435.000
ESTCUBE 1 02 May 11:59:21 12:03:47 54° 100° (E) 12:08:14 437.505/2401.250
HUMSAT D 02 May 12:02:14 12:05:18 21° 290° (WNW) 12:08:22 437.325/437.525
QB50P2 02 May 12:12:25 12:16:14 31° 263° (W) 12:20:03 145.880/145.840
DUCHIFAT 1 02 May 12:12:33 12:16:28 36° 261° (W) 12:20:25 145.980
POLYITAN 1 02 May 12:14:34 12:18:22 31° 262° (W) 12:22:12 437.675
POPSAT HIP 1 02 May 12:17:22 12:21:06 29° 263° (W) 12:24:52 437.405
AIST 1 02 May 12:18:32 12:22:49 51° 267° (W) 12:27:04
QB50P1 02 May 12:20:48 12:24:25 26° 263° (W) 12:28:03 145.935-145.965
CUBEBUG 1 02 May 12:20:54 12:25:20 67° 101° (E) 12:29:43 437.445
50 SAT 02 May 12:32:23 12:36:00 62° 284° (WNW) 12:39:37 437.505
Oscar 19 02 May 12:38:42 12:42:49 25° 68° (ENE) 12:46:57 437.125/150
DX 1 02 May 12:45:29 12:49:51 70° 285° (WNW) 12:54:12 434.975-435.025
VELOX 1 02 May 12:47:03 12:51:28 59° 285° (WNW) 12:55:50 145.980
UKube-1 02 May 12:52:46 12:57:07 71° 284° (WNW) 13:01:24 .
BUGSAT 1 02 May 12:56:53 13:00:17 23° 264° (W) 13:03:42 437.445
NANOSAT C BR1 02 May 12:58:58 12:59:46 10° 268° (W) 13:00:34 145.865
GONETS M04 02 May 13:01:05 13:09:20 48° 271° (W) 13:17:31
AO-85 02 May 13:02:49 13:08:15 69° 301° (WNW) 13:13:41 145.980
ISS 02 May 13:11:27 13:12:41 12° 27° (NNE) 13:13:55 145.825
JAS-2 02 May 13:16:08 13:21:55 90° 58° (ENE) 13:28:31 435.910
AISAT 02 May 13:19:46 13:23:22 24° 290° (WNW) 13:26:58 437.250
PHONESAT 2.4 02 May 13:20:55 13:23:41 27° 6° (N) 13:26:29 2401.200-2431.200
Cosmos 2499 02 May 13:21:18 13:28:58 61° 268° (W) 13:37:14 435.465 / 435.565
SPROUT 02 May 13:23:33 13:27:48 60° 284° (WNW) 13:32:00 437.525
ESTCUBE 1 02 May 13:38:12 13:40:06 12° 294° (WNW) 13:41:58 437.505/2401.250
SWISSCUBE 02 May 13:52:06 13:54:18 13° 93° (E) 13:56:30 437.505
ITAMSAT 1 02 May 13:56:34 14:00:31 23° 67° (ENE) 14:04:28 435.822/435.867
TISAT 1 02 May 13:59:01 14:03:15 86° 281° (W) 14:07:26 437.305
Gurwin Techsat 1B 02 May 14:08:01 14:13:18 75° 75° (ENE) 14:18:38 435.225
AO-7 02 May 14:10:04 14:15:48 21° 57° (ENE) 14:21:32 29.400- 29.500
Oscar 19 02 May 14:17:17 14:21:55 34° 262° (W) 14:26:36 437.125/150
BEESAT 02 May 14:23:46 14:27:48 27° 97° (E) 14:31:49 436.000
CUSAT 1 02 May 14:24:28 14:25:12 10° 82° (E) 14:25:57 437.405
PCSat 02 May 14:26:15 14:29:16 15° 104° (ESE) 14:32:17 145.827
O/OREOS (USA 219) 02 May 14:28:18 14:32:36 41° 105° (ESE) 14:36:55 437.305
ISS 02 May 14:46:18 14:49:33 88° 33° (NNE) 14:52:49 145.825
AO-85 02 May 14:48:19 14:49:41 11° 317° (NW) 14:51:01 145.980
PHONESAT 2.4 02 May 14:57:41 15:00:50 77° 23° (NNE) 15:04:00 2401.200-2431.200
ITUPSAT 1 02 May 15:17:59 15:22:45 77° 285° (WNW) 15:27:31 437.325
SWISSCUBE 02 May 15:27:43 15:32:20 52° 286° (WNW) 15:36:57 437.505
ITAMSAT 1 02 May 15:34:58 15:39:43 37° 261° (W) 15:44:29 435.822/435.867
Gurwin Techsat 1B 02 May 15:52:40 15:53:43 11° 269° (W) 15:54:46 435.225
AO-7 02 May 15:59:23 16:07:40 78° 255° (WSW) 16:15:59 29.400- 29.500
BEESAT 02 May 16:01:34 16:05:27 26° 291° (WNW) 16:09:21 436.000
CUSAT 1 02 May 16:03:51 16:06:40 26° 288° (WNW) 16:10:09 437.405
PCSat 02 May 16:06:46 16:12:05 59° 298° (WNW) 16:17:27 145.827
O/OREOS (USA 219) 02 May 16:09:13 16:12:10 17° 300° (WNW) 16:15:08 437.305
SO-50 02 May 16:17:17 16:21:52 51° 58° (ENE) 16:26:17 436.795
Cosmos 2491 02 May 16:17:43 16:19:34 11° 62° (ENE) 16:21:24 435.465 / 435.565
KKS-1 02 May 16:32:52 16:37:22 87° 100° (E) 16:41:49 437.445
MOZHAYETS 4 02 May 16:34:02 16:38:32 55° 100° (E) 16:43:01
PHONESAT 2.4 02 May 16:35:21 16:37:26 16° 216° (SW) 16:39:30 2401.200-2431.200
DANDE 02 May 16:45:08 16:47:12 18° 288° (WNW) 16:49:32 436.750
STARS 02 May 16:50:16 16:54:40 68° 102° (ESE) 16:59:00 437.465
HORYU 2 02 May 16:54:27 16:58:56 81° 259° (WSW) 17:03:25 437.375
CUTE-I 02 May 17:04:12 17:06:41 13° 63° (ENE) 17:09:10 437.470
JUGNU 02 May 17:05:11 17:06:57 11° 165° (SSE) 17:08:43 437.505
BRITE-PL 02 May 17:07:04 17:08:29 11° 62° (ENE) 17:09:56 437.365/2234.400
NOAA 18 02 May 17:13:01 17:17:23 24° 66° (ENE) 17:21:43 137.9125
